FW8369 Weather Reports


time (UTC)temp
F
wind
direction
speed
knots
gust
knots
rain 1hr
in
rain 24hr
in
rain mn
in
humidity
%
barometer
mb
20260509053904 76 31 0.0 2.6 0.00 1.88 1.29 86 1014.2
20260509053404 76 53 1.7 4.3 0.00 1.88 1.29 86 1014.3
20260509051904 76 63 3.5 7.0 0.00 1.88 1.29 85 1014.6
20260509051404 77 22 1.7 2.6 0.00 1.88 1.29 85 1014.7
20260509050904 77 333 0.0 0.9 0.00 1.88 1.29 85 1014.7
20260509050404 77 56 0.9 4.3 0.00 1.88 1.29 85 1014.8
20260509045404 76 331 0.0 0.9 0.00 1.88 1.29 86 1014.7
20260509044904 76 277 0.0 1.7 0.00 1.88 1.29 87 1014.8
20260509044404 76 314 0.0 1.7 0.00 1.88 1.29 87 1014.9
20260509043904 76 304 0.0 0.9 0.00 1.88 1.29 87 1015.0
20260509042904 76 298 0.0 0.9 0.00 1.88 1.29 88 1015.1
20260509042404 75 332 0.0 2.6 0.00 1.88 1.29 88 1015.2
20260509041904 75 305 0.0 0.9 0.00 1.88 1.29 88 1015.3
20260509041403 75 286 0.0 2.6 0.00 1.88 1.29 89 1015.3
20260509040904 75 49 0.9 2.6 0.00 1.88 1.29 89 1015.3
20260509035904 75 4 2.6 7.8 0.00 1.88 1.29 89 1015.3
20260509035404 75 60 4.3 7.0 0.00 1.88 1.29 89 1015.3
20260509034903 75 13 1.7 4.3 0.00 1.88 1.29 89 1015.4
20260509034404 75 48 2.6 5.2 0.00 1.88 1.29 89 1015.5
20260509033904 75 54 1.7 8.7 0.00 1.88 1.29 89 1015.5
20260509033404 75 329 0.0 7.0 0.00 1.88 1.29 89 1015.5
20260509032904 75 51 0.9 4.3 0.00 1.88 1.29 90 1015.6
20260509031904 75 64 1.7 5.2 0.00 1.88 1.29 89 1015.6
20260509031404 75 14 0.0 4.3 0.00 1.88 1.29 90 1015.8
20260509030904 75 30 0.9 6.1 0.00 1.88 1.29 90 1015.7
20260509030404 75 55 4.3 7.8 0.00 1.88 1.29 89 1015.6
20260509025904 75 38 0.9 4.3 0.00 1.88 1.29 89 1015.5
20260509025404 76 55 1.7 5.2 0.00 1.88 1.29 89 1015.4
20260509024903 76 39 0.9 2.6 0.00 1.88 1.29 89 1015.4
20260509024404 75 58 2.6 5.2 0.00 1.88 1.29 89 1015.5
20260509023904 76 292 0.0 0.9 0.00 1.88 1.29 91 1015.4
20260509023404 75 17 0.0 2.6 0.00 1.88 1.29 91 1015.4
20260509022905 75 57 0.9 2.6 0.00 1.88 1.29 91 1015.4
20260509022403 75 319 0.9 2.6 0.00 1.88 1.29 91 1015.4
20260509021904 75 50 0.9 2.6 0.00 1.88 1.29 91 1015.6
20260509021404 74 61 4.3 7.8 0.00 1.88 1.29 91 1015.7
20260509020904 75 58 4.3 7.8 0.00 1.88 1.29 91 1015.8
20260509020403 75 11 0.9 2.6 0.00 1.88 1.29 91 1015.8
20260509015904 75 19 1.7 4.3 0.00 1.88 1.29 91 1015.7
20260509015403 75 46 2.6 5.2 0.00 1.88 1.29 91 1015.7
20260509014904 75 13 0.0 1.7 0.00 1.88 1.29 91 1015.7
20260509013404 75 356 0.9 2.6 0.00 1.88 1.29 91 1015.6
20260509012904 75 11 0.9 2.6 0.00 1.88 1.29 92 1015.6
20260509012404 75 41 1.7 5.2 0.00 1.88 1.29 92 1015.6
20260509011904 75 58 2.6 6.1 0.00 1.88 1.29 92 1015.5
20260509011404 74 36 4.3 8.7 0.00 1.88 1.29 92 1015.5
20260509010904 75 54 1.7 6.1 0.00 1.88 1.29 92 1015.4
20260509010405 74 25 0.9 2.6 0.00 1.88 1.29 93 1015.4
20260509005904 74 47 1.7 6.1 0.01 1.88 1.29 93 1015.5
20260509005404 74 53 1.7 4.3 0.02 1.88 1.29 93 1015.4
20260509004904 74 63 0.9 5.2 0.03 1.88 1.29 94 1015.3
20260509003904 74 322 0.0 2.6 0.05 1.88 1.29 95 1015.1
20260509003404 74 10 0.0 1.7 0.06 1.88 1.29 95 1015.0
20260509002904 74 45 1.7 2.6 0.08 1.88 1.29 95 1015.0
20260509002404 74 40 0.9 2.6 0.09 1.88 1.29 95 1014.8
20260509001904 74 310 0.0 1.7 0.10 1.88 1.29 95 1014.8
20260509001404 74 2 0.0 0.9 0.11 1.88 1.29 95 1014.8
20260509000904 74 300 0.0 0.0 0.12 1.88 1.29 95 1014.8
20260509000404 74 300 0.0 2.6 0.12 1.88 1.29 95 1014.7
20260508235904 74 60 1.7 2.6 0.12 1.87 1.28 95 1014.7
20260508235404 74 353 0.9 2.6 0.12 1.86 1.27 95 1014.7
20260508234405 74 17 2.6 4.3 0.11 1.84 1.25 94 1014.7
20260508233904 74 36 0.9 1.7 0.10 1.83 1.24 95 1014.6
20260508233404 74 29 0.9 2.6 0.10 1.82 1.23 95 1014.6
20260508232904 74 55 1.7 4.3 0.08 1.80 1.21 95 1014.6
20260508232404 74 60 1.7 2.6 0.07 1.79 1.20 95 1014.6
20260508231904 74 333 0.0 2.6 0.06 1.78 1.19 95 1014.4
20260508231403 74 8 1.7 2.6 0.05 1.77 1.18 95 1014.3
20260508225904 74 314 0.9 1.7 0.04 1.75 1.16 95 1014.2
20260508225404 74 330 0.0 1.7 0.03 1.74 1.15 95 1014.1
20260508224904 74 346 0.0 0.0 0.02 1.73 1.14 95 1014.0
20260508224403 74 40 0.9 1.7 0.02 1.73 1.14 95 1013.9
20260508223904 74 310 0.0 0.0 0.02 1.73 1.14 95 1013.9
20260508223404 74 310 0.0 0.9 0.01 1.72 1.13 95 1013.7
20260508222904 74 350 0.0 0.9 0.01 1.72 1.13 95 1013.7
20260508222404 74 313 0.0 0.9 0.01 1.72 1.13 96 1013.7
20260508221904 74 314 0.0 0.9 0.01 1.72 1.13 96 1013.7
20260508221403 74 21 0.0 2.6 0.01 1.72 1.13 96 1013.5
20260508220904 74 337 0.0 0.9 0.01 1.72 1.13 96 1013.5
20260508215904 74 315 0.0 0.9 0.01 1.71 1.12 96 1013.1
20260508215404 74 309 0.0 0.9 0.01 1.71 1.12 96 1013.1
20260508214904 74 10 0.0 2.6 0.01 1.71 1.12 96 1013.1
20260508214404 74 342 0.9 2.6 0.02 1.71 1.12 96 1013.1
20260508213404 74 356 0.9 1.7 0.03 1.71 1.12 96 1012.9
20260508212903 74 332 0.0 0.0 0.04 1.71 1.12 96 1013.0
20260508212404 74 341 0.0 0.9 0.04 1.71 1.12 96 1013.0
20260508211404 74 346 0.0 1.7 0.06 1.71 1.12 96 1012.9
20260508210903 74 289 0.0 2.6 0.06 1.71 1.12 96 1012.8
20260508205404 75 31 0.0 2.6 0.06 1.70 1.11 96 1012.5
20260508204904 75 11 0.0 1.7 0.06 1.70 1.11 96 1012.4
20260508204404 75 8 0.0 1.7 0.06 1.69 1.10 96 1012.4
20260508202904 75 33 0.9 2.6 0.06 1.67 1.08 96 1012.2
20260508202404 75 54 0.9 2.6 0.07 1.67 1.08 96 1012.2
20260508201904 75 35 1.7 2.6 0.08 1.66 1.07 96 1012.2
20260508201404 75 13 1.7 2.6 0.10 1.65 1.06 96 1012.2
20260508200904 75 49 0.9 2.6 0.13 1.65 1.06 96 1012.2
20260508200404 75 43 0.9 2.6 0.16 1.65 1.06 96 1012.2
20260508195904 75 5 0.9 2.6 0.18 1.65 1.06 96 1012.2
20260508195404 75 49 1.7 2.6 0.19 1.64 1.05 96 1012.3
20260508193404 76 346 0.0 1.7 0.32 1.62 1.03 97 1012.4
20260508192904 76 350 0.0 2.6 0.35 1.61 1.02 97 1012.3
20260508192404 76 59 0.9 2.6 0.36 1.60 1.01 96 1012.3
20260508191904 76 58 0.9 4.3 0.38 1.58 0.99 96 1012.2
20260508190904 76 334 0.0 2.6 0.37 1.52 0.93 97 1012.2
20260508190404 76 40 0.9 2.6 0.36 1.49 0.90 96 1012.2
20260508185904 76 314 0.0 2.6 0.35 1.47 0.88 96 1012.1
20260508185404 76 296 0.9 1.7 0.36 1.45 0.86 97 1012.1
20260508184904 76 310 0.0 0.9 0.38 1.42 0.83 97 1012.2
20260508183904 76 311 0.0 5.2 0.41 1.37 0.78 97 1012.3
20260508183404 76 138 0.9 2.6 0.35 1.30 0.71 97 1012.2
20260508182904 76 320 0.0 1.7 0.31 1.26 0.67 96 1012.2
20260508182404 76 359 0.9 2.6 0.30 1.24 0.65 96 1012.3
20260508181904 77 25 0.9 4.3 0.26 1.20 0.61 97 1012.3
20260508180904 77 283 0.0 0.9 0.23 1.15 0.56 97 1012.3
20260508180404 77 320 0.0 0.0 0.22 1.13 0.54 97 1012.3
20260508175904 76 320 0.9 2.6 0.21 1.12 0.53 97 1012.3
20260508175404 76 299 0.9 2.6 0.19 1.09 0.50 97 1012.3
20260508174904 76 320 0.0 1.7 0.16 1.04 0.45 97 1012.3
20260508174404 76 325 0.9 1.7 0.12 0.99 0.40 96 1012.3
20260508173904 76 324 0.9 1.7 0.11 0.96 0.37 96 1012.3
20260508173404 77 324 0.0 0.9 0.11 0.95 0.36 96 1012.3
20260508172904 77 320 0.0 0.0 0.13 0.95 0.36 97 1012.5
20260508172405 77 321 0.0 0.9 0.15 0.94 0.35 96 1012.5
20260508171904 77 322 0.9 0.9 0.18 0.94 0.35 97 1012.5
20260508171404 77 322 0.0 0.9 0.19 0.92 0.33 96 1012.5
20260508170904 77 346 0.9 1.7 0.25 0.92 0.33 96 1012.5
20260508170404 77 347 1.7 2.6 0.28 0.91 0.32 96 1012.5
20260508165904 77 347 0.9 1.7 0.35 0.91 0.32 96 1012.6
20260508165404 77 320 0.0 2.6 0.42 0.90 0.31 96 1012.6
20260508164904 77 344 0.0 1.7 0.48 0.88 0.29 96 1012.6
20260508164404 77 337 0.9 1.7 0.57 0.87 0.28 96 1012.6
20260508163404 78 333 0.0 0.0 0.05 0.84 0.25 96 1012.6
20260508162904 78 334 0.0 1.7 0.14 0.82 0.23 96 1012.6
20260508161904 78 341 1.7 1.7 0.17 0.76 0.17 95 1012.8
20260508161404 78 342 0.9 2.6 0.14 0.73 0.14 95 1012.8
20260508160404 79 297 0.0 1.7 0.04 0.63 0.04 95 1012.9
20260508155904 79 299 0.0 0.9 0.59 0.59 0.59 95 1012.9
20260508155404 79 314 0.0 0.9 0.50 0.50 0.50 94 1012.9
20260508154904 79 315 0.9 1.7 0.41 0.41 0.41 94 1012.9
20260508154404 79 296 0.0 2.6 0.32 0.32 0.32 94 1012.9
20260508153404 80 324 0.0 0.9 0.20 0.20 0.20 94 1012.9
20260508152904 80 332 0.0 0.0 0.09 0.09 0.09 93 1012.9
20260508152404 80 334 0.9 5.2 0.02 0.02 0.02 92 1012.8
20260508151905 80 21 1.7 4.3 0.00 0.00 0.00 91 1012.8
20260508151404 80 339 1.7 4.3 0.00 0.00 0.00 90 1012.8
20260508150904 81 346 2.6 4.3 0.00 0.00 0.00 88 1012.8
20260508150404 81 350 1.7 4.3 0.00 0.00 0.00 88 1012.7
20260508145904 81 355 1.7 2.6 0.00 0.00 0.00 88 1012.7
20260508145404 81 333 0.0 0.9 0.00 0.00 0.00 88 1012.7
20260508144904 81 337 0.9 1.7 0.00 0.00 0.00 88 1012.8
20260508144404 81 337 0.9 1.7 0.00 0.00 0.00 88 1012.9
20260508143904 81 343 0.9 1.7 0.00 0.00 0.00 88 1013.0
20260508143404 81 346 1.7 2.6 0.00 0.00 0.00 88 1013.0
20260508142904 81 341 0.9 2.6 0.00 0.00 0.00 88 1013.0
20260508142404 81 334 0.9 1.7 0.00 0.00 0.00 87 1013.1
20260508141904 81 337 0.0 1.7 0.00 0.00 0.00 87 1013.0
20260508141404 81 338 0.9 2.6 0.00 0.00 0.00 88 1013.1
20260508140904 81 325 0.9 1.7 0.00 0.00 0.00 88 1013.0
20260508140404 81 325 0.0 2.6 0.00 0.00 0.00 88 1013.0
20260508135404 81 11 0.9 2.6 0.00 0.00 0.00 87 1012.9
20260508133904 82 41 2.6 4.3 0.00 0.00 0.00 86 1012.8
20260508133405 82 340 0.9 1.7 0.00 0.00 0.00 86 1012.6
20260508132904 82 311 0.9 1.7 0.00 0.00 0.00 87 1012.6
20260508132404 82 332 1.7 4.3 0.00 0.00 0.00 87 1012.6
20260508131904 82 349 0.9 1.7 0.00 0.00 0.00 87 1012.6
20260508131404 82 334 0.9 1.7 0.00 0.00 0.00 87 1012.6
20260508130903 82 342 1.7 1.7 0.00 0.00 0.00 87 1012.6
20260508130404 82 340 1.7 2.6 0.00 0.00 0.00 86 1012.5
20260508125904 82 1 1.7 2.6 0.00 0.00 0.00 86 1012.5
20260508125403 82 38 0.9 1.7 0.00 0.00 0.00 86 1012.4
20260508124904 82 340 0.9 1.7 0.00 0.00 0.00 86 1012.4
20260508123404 82 356 0.9 1.7 0.00 0.00 0.00 86 1012.1
20260508122905 82 10 0.9 1.7 0.00 0.00 0.00 86 1012.1
20260508122404 82 22 1.7 2.6 0.00 0.00 0.00 85 1012.1
20260508121404 83 356 0.9 1.7 0.00 0.00 0.00 85 1011.9
20260508120903 83 274 0.9 0.9 0.00 0.00 0.00 85 1011.8
20260508115903 83 274 0.9 1.7 0.00 0.00 0.00 85 1011.6
20260508115404 82 275 0.0 0.9 0.00 0.00 0.00 85 1011.7
20260508114904 82 266 0.9 1.7 0.00 0.00 0.00 85 1011.6
20260508114404 83 266 0.0 1.7 0.00 0.00 0.00 85 1011.5
20260508113903 83 268 0.0 1.7 0.00 0.00 0.00 85 1011.5
20260508113404 83 322 0.0 0.9 0.00 0.00 0.00 85 1011.5
20260508111904 82 326 0.0 1.7 0.00 0.00 0.00 85 1011.3
20260508111404 82 333 0.9 2.6 0.00 0.00 0.00 85 1011.3
20260508110404 82 53 0.9 2.6 0.00 0.00 0.00 84 1011.3
20260508105404 83 7 0.9 2.6 0.00 0.00 0.00 84 1011.2
20260508104911 83 0 0.9 2.6 0.00 0.00 0.00 83 1011.1
20260508104404 84 335 0.9 1.7 0.00 0.00 0.00 83 1011.1
20260508103904 84 344 0.0 0.0 0.00 0.00 0.00 83 1011.0
20260508103404 84 307 0.0 0.0 0.00 0.00 0.00 83 1011.0
20260508102903 84 287 0.0 0.0 0.00 0.00 0.00 82 1011.0
20260508102404 84 288 0.0 0.0 0.00 0.00 0.00 82 1010.9
20260508101904 84 288 0.0 0.0 0.00 0.00 0.00 83 1010.8
20260508101407 84 288 0.0 0.0 0.00 0.00 0.00 83 1010.8
20260508100903 84 287 0.0 0.0 0.00 0.00 0.00 82 1010.8
20260508100404 84 289 0.0 0.0 0.00 0.00 0.00 83 1010.6
20260508095904 84 285 0.0 0.9 0.00 0.00 0.00 82 1010.4
20260508095404 84 285 0.0 0.0 0.00 0.00 0.00 82 1010.3
20260508094903 84 286 0.9 1.7 0.00 0.00 0.00 82 1010.3
20260508094404 84 314 0.0 0.9 0.00 0.00 0.00 82 1010.3
20260508093904 84 284 0.0 1.7 0.00 0.00 0.00 82 1010.2
20260508093404 85 309 0.9 2.6 0.00 0.00 0.00 81 1010.2
20260508092404 85 298 0.0 0.9 0.00 0.00 0.00 81 1010.2
20260508091905 85 298 0.0 0.9 0.00 0.00 0.00 81 1010.2
20260508091404 85 300 0.0 0.9 0.00 0.00 0.00 81 1010.3
20260508090903 84 301 0.0 0.9 0.00 0.00 0.00 82 1010.3
20260508090404 84 350 1.7 2.6 0.00 0.00 0.00 82 1010.2
20260508085904 84 346 0.0 2.6 0.00 0.00 0.00 82 1010.0
20260508085404 84 0 0.9 2.6 0.00 0.00 0.00 82 1010.0
20260508084903 84 322 0.9 2.6 0.00 0.00 0.00 82 1010.0
20260508084404 85 355 1.7 2.6 0.00 0.00 0.00 80 1010.0
20260508083904 85 60 0.9 1.7 0.00 0.00 0.00 79 1010.1
20260508082904 85 308 0.9 2.6 0.00 0.00 0.00 80 1010.0
20260508082404 86 350 2.6 4.3 0.00 0.00 0.00 78 1010.0
20260508081904 87 313 0.0 1.7 0.00 0.00 0.00 77 1010.0
20260508081404 87 322 0.9 2.6 0.00 0.00 0.00 77 1010.1
20260508080904 87 266 0.9 1.7 0.00 0.00 0.00 77 1010.1
20260508080403 87 323 0.9 2.6 0.00 0.00 0.00 77 1010.1
20260508075904 87 323 0.9 1.7 0.00 0.00 0.00 77 1010.1
20260508074404 88 266 0.0 0.9 0.00 0.00 0.00 76 1010.2
20260508073905 88 260 0.0 1.7 0.00 0.00 0.00 76 1010.3
20260508073404 88 266 0.0 1.7 0.00 0.00 0.00 76 1010.3
20260508072904 88 300 0.9 2.6 0.00 0.00 0.00 76 1010.3
20260508071904 89 301 0.9 4.3 0.00 0.00 0.00 75 1010.3
20260508071404 90 324 0.9 4.3 0.00 0.00 0.00 73 1010.3
20260508070904 90 290 0.0 0.9 0.00 0.00 0.00 73 1010.4
20260508070404 89 237 0.9 2.6 0.00 0.00 0.00 74 1010.4
20260508065404 89 220 0.9 2.6 0.00 0.00 0.00 75 1010.5
20260508064904 88 42 1.7 2.6 0.00 0.00 0.00 76 1010.6
20260508064404 88 304 0.9 2.6 0.00 0.00 0.00 76 1010.6
20260508063904 89 4 1.7 4.3 0.00 0.00 0.00 73 1010.7
20260508063404 90 311 0.9 2.6 0.00 0.00 0.00 74 1010.8
20260508062905 77 310 0.0 0.0 0.00 0.00 0.00 90 1010.9